Location: Newark
(49.4900°N, 20.6656°E)
Time: 01:33:39
(UTC+00:00)

FALCON 9 DEB - Pass Details

Date: 24 September 2020
Orbit: 158 x 180 km, 53.0° (Epoch: 28 September)

Event Time Altitude Azimuth Distance (km) Brightness Sun altitude
Exits shadow 01:45:06 - 71° (ENE) 1,431 ? -25.8°
Enters shadow 02:38:00 -71° 274° (W) 12,313 ? -18.1°
Maximum altitude 03:14:40 39° 15° (NNE) 305 ? -12.5°
